Regional Weather Roundup
Issued by NWS

Home | Current Version | Previous Version | Text Only | Print | Product List | Glossary Off
Versions: 1 2 3 4 5 6 7 8 9 10 11 12 13 14 15 16 17 18 19 20 21 22 23 24 25 26 27 28 29 30 31 32 33 34 35 36 37 38 39 40 41 42 43 44 45 46 47 48 49 50

476
ASUS44 KMEG 260700
RWRTN
TENNESSEE HOURLY STATE WEATHER ROUNDUP
NATIONAL WEATHER SERVICE MEMPHIS TN
200 AM CDT TUE JUL 26 2016

TNZ002-004-019-021-049-052-054-088>092-260800-
WEST TENNESSEE

CITY           SKY/WX    TMP DP  RH WIND       PRES   REMARKS
MEMPHIS INTL   CLEAR     82  75  79 E5        29.97F
NWS MEMPHIS      N/A     77 N/A N/A MISG        N/A
JACKSON        CLEAR     76  74  93 SE3       29.99F
DYERSBURG      CLEAR    N/A N/A N/A MISG        N/A
UNION CITY       N/A     72  72 100 CALM      29.98F VSB 1/4
PARIS          CLEAR     70  70 100 CALM      30.01S
LEXINGTON      CLEAR     72  72 100 CALM      30.00S
$$

TNZ008-025-027-028-033-062-065-066-260800-
NORTH MIDDLE TENNESSEE

CITY           SKY/WX    TMP DP  RH WIND       PRES   REMARKS
NASHVILLE      CLEAR     77  72  84 CALM      30.02F
CLARKSVILLE    PTCLDY    73  71  93 CALM      30.01S
COOKEVILLE     CLEAR     73  73 100 CALM      30.04S
CROSSVILLE     PTCLDY    73  71  93 CALM      30.10S
$$

TNZ061-075-076-078-094-096-097-260800-
SOUTH MIDDLE TENNESSEE

CITY           SKY/WX    TMP DP  RH WIND       PRES   REMARKS
TULLAHOMA      CLEAR     77  73  88 SE5       30.06F
WINCHESTER     CLEAR     75  72  88 CALM      30.05F
MCMINNVILLE    CLEAR     75  75 100 CALM      30.04S
COLUMBIA       CLEAR    N/A N/A N/A CALM      30.00F
SHELBYVILLE    CLEAR     77  75  94 CALM      30.05R
$$

TNZ017-018-042-046-047-260800-
NORTHEAST TENNESSEE

CITY           SKY/WX    TMP DP  RH WIND       PRES   REMARKS
TRI CITIES     MOCLDY    73  71  93 CALM      30.06F
$$

TNZ012-013-036-069-073-074-260800-
CENTRAL EAST TENNESSEE

CITY           SKY/WX    TMP DP  RH WIND       PRES   REMARKS
KNOXVILLE      CLEAR     78  71  79 W6        30.02S
OAK RIDGE      CLEAR     80  72  76 CALM      30.04F
GATLINBURG     CLEAR     73  70  88 E3        30.02S
$$

TNZ083-085-099-260800-
SOUTHEAST TENNESSEE

CITY           SKY/WX    TMP DP  RH WIND       PRES   REMARKS
CHATTANOOGA    MOCLDY    78  73  84 S3        30.05S
$$

SKY/WX REPORTED AS FAIR MEANS FEW OR NO CLOUDS BELOW
12 THOUSAND FEET.





USA.gov is the U.S. government's official web portal to all federal, state and local government web resources and services.